Regional Weather Roundup
Issued by NWS

Home | Current Version | Previous Version | Graphics & Text | Print | Product List | Glossary On
Versions: 1 2 3 4 5 6 7 8 9 10 11 12 13 14 15 16 17 18 19 20 21 22 23 24 25 26 27 28 29 30 31 32 33 34 35 36 37 38 39 40 41 42 43 44 45 46 47 48 49 50
000
ASUS45 KSLC 251810
RWRUT

UTAH REGIONAL WEATHER ROUNDUP
NATIONAL WEATHER SERVICE SALT LAKE CITY UT
1200 PM MDT TUE APR 25 2017

UTZ001>011-023>025-251900-

NORTHERN UTAH

CITY           SKY/WX    TMP DP  RH WIND       PRES   REMARKS
BRIGHAM CITY   CLOUDY    46  34  65 N5        29.86R
DUGWAY         PTSUNNY   48  32  53 NW17G24   29.88R
HILL AFB       CLOUDY    43  36  76 NW13      29.85R
LOGAN          LGT RAIN  45  38  76 NE6       29.84R
OGDEN          CLOUDY    44  34  67 NW14      29.84R
SALT LAKE CITY HAIL      42  38  85 N15G21    29.87R FOG
TOOELE VALLEY  CLOUDY    41  37  87 NE14      29.89R
WENDOVER       SUNNY     49  25  39 NW24G37   29.90R
HEBER CITY     MIX PCPN  37  34  87 E3        29.81R
WEST JORDAN    CLOUDY    44  44 100 N9        29.87R

$$

UTZ011>015-024>027-251900-

CENTRAL/NORTHEAST UTAH

CITY           SKY/WX    TMP DP  RH WIND       PRES   REMARKS
PROVO AIRPORT  LGT RAIN  43  37  81 NW16      29.88R
MOAB/CANYONLAN MOSUNNY   60  24  25 W20G26    29.65F
DELTA          MOSUNNY   45  34  65 N17       29.87S
PRICE          CLOUDY    42  33  70 W20G26    29.76R
RICHFIELD      MOSUNNY   45  32  61 NE6G14    29.87R
ROOSEVELT      PTSUNNY   50  30  46 SE3       29.74F
VERNAL         LGT RAIN  45  31  58 VRB6      29.73R

$$

UTZ013>016-019>022-027-251900-

SOUTHERN UTAH

CITY           SKY/WX    TMP DP  RH WIND       PRES   REMARKS
BRYCE CANYON   PTSUNNY   42  23  46 NW22G31   29.82R
CEDAR CITY     PTSUNNY   51  26  37 N13G21    29.83R
MILFORD        CLOUDY    47  34  60 N24G30    29.87R
ST GEORGE      CLOUDY    67  23  19 NW12G21   29.79R
HANKSVILLE     PTSUNNY   59  25  27 NW12G24   29.72S
KANAB          MOSUNNY   61  21  21 W12G20    29.81R
BLANDING       CLOUDY    53  18  25 W7G30     29.75F

$$

REGIONAL REPORTS     COLORADO/ARIZONA

CITY           SKY/WX    TMP DP  RH WIND       PRES   REMARKS
CRAIG, CO      CLOUDY    40  31  70 SW8       29.71R WCI  34
GRAND JUNCTION CLOUDY    57  26  30 W10G18    29.65F
RIFLE, CO      SUNNY     52  27  38 CALM      29.66F
MONTROSE, CO   PTSUNNY   45  34  65 E6        29.69F
CORTEZ, CO     CLOUDY    49  35  58 S14       29.70F
COLORADO CITY    N/A     59  27  29 W7        29.83R
PAGE, AZ       PTSUNNY   63  23  21 W9G20     29.70F
GRAND CANYON   SUNNY     52  12  20 NW17G25   29.80F
KINGMAN, AZ    SUNNY     68  20  16 N13G23    29.82R
FLAGSTAFF, AZ  MOSUNNY   55  19  24 W15G26    29.81F

$$

REGIONAL REPORTS    NEVADA/IDAHO/WYOMING

CITY           SKY/WX    TMP DP  RH WIND       PRES   REMARKS
LAS VEGAS, NV  MOSUNNY   72  18  13 N14G21    29.79S
ELY, NY        CLOUDY    40  24  53 NW16G22   29.94R WCI  31
ELKO, NV       PTSUNNY   45  27  49 W7        30.00R
POCATELLO, ID  PTSUNNY   44  40  85 SW13      29.86R
BURLEY, ID     SUNNY     47  33  58 W24G35    29.86R
FORT BRIDGER,  LGT SNOW  37  32  81 W13G23    29.80R WCI  29
EVANSTON, WY   CLOUDY    39  30  70 NW20      29.78R WCI  29
ROCK SPRINGS,  CLOUDY    43  27  53 W13G25    29.70R
KEMMERER, WY     N/A     37  30  75 W22G31    29.77R WCI  27

$$



USA.gov is the U.S. government's official web portal to all federal, state and local government web resources and services.